Hourly Weather Roundup
Issued by NWS Central Illinois

Home | Current Version | Previous Version | Text Only | Print | Product List | Glossary On
Versions: 1 2 3 4 5 6 7 8 9 10 11 12 13 14 15 16 17 18 19 20 21 22 23 24 25 26 27 28 29 30 31 32 33 34 35 36 37 38 39 40 41 42 43 44 45 46 47 48 49 50
000
NZUS43 KILX 011310
HWRILX

AREA WEATHER ROUNDUP
NATIONAL WEATHER SERVICE, LINCOLN IL
800 AM CDT TUE SEP 01 2015


CITY           SKY/WX    TMP DP  RH WIND       PRES   REMARKS
BLOOMINGTON    MOSUNNY   73  73 100 SW8       30.09F
CHAMPAIGN      CLOUDY    72  70  93 S6        30.10F FOG
DANVILLE       PTSUNNY   71  69  92 S7        30.08F FOG
DECATUR        MOSUNNY   73  68  84 SW9       30.10R
EFFINGHAM      PTSUNNY   71  67  88 E3        30.13R
FLORA          MOSUNNY   70  67  91 S3        30.12S
GALESBURG      SUNNY     72  71  95 S6        30.07R FOG
JACKSONVILLE   SUNNY     76  72  85 SW8       30.08S
LACON          SUNNY     74  71  90 SW5       30.05S
LAWRENCEVILLE  PTSUNNY   71  69  93 SE6       30.14R
LITCHFIELD     SUNNY     71  69  93 S5        30.10S FOG
$$


CITY           SKY/WX    TMP DP  RH WIND       PRES   REMARKS
LINCOLN        SUNNY     73  70  92 CALM      30.08R FOG
MACOMB         SUNNY     74  71  88 SW5       30.08S
MATTOON        CLOUDY    71  67  87 S9        30.12R
MT CARMEL AP   PTSUNNY   70  68  94 CALM      30.14R
OLNEY-NOBLE AP PTSUNNY   70  68  94 E3        30.13S
PARIS          MOSUNNY   73  69  86 SW12      30.12F THUNDER
PEORIA         SUNNY     75  71  87 S6        30.07R FOG
PONTIAC        SUNNY     72  72  99 CALM      30.08F FOG
RANTOUL        CLOUDY    74  72  94 S5        30.10S FOG
ROBINSON       CLOUDY    70  67  90 N6        30.16R THUNDER
SPRINGFIELD    SUNNY     75  71  87 SW7       30.08S
TAYLORVILLE    SUNNY     72  70  94 S6        30.10S
$$

...REGIONAL REPORTS...


CITY           SKY/WX    TMP DP  RH WIND       PRES   REMARKS
CHICAGO O`HARE MOSUNNY   73  71  93 S3        30.05S
KANKAKEE       TSTM      71  69  93 CALM      30.09R
MOLINE         MOSUNNY   75  70  84 CALM      30.04R HAZE
MOUNT STERLING SUNNY     72  70  93 S6        30.07S
MOUNT VERNON   SUNNY     72  66  83 CALM      30.13S
PITTSFIELD     MOSUNNY   74  70  86 SW6       30.09S
QUINCY         SUNNY     73  70  90 S8        30.07R
ROCKFORD       MOSUNNY   72  69  90 S6        30.06R FOG
$$


CITY           SKY/WX    TMP DP  RH WIND       PRES   REMARKS
BURLINGTON     SUNNY     73  72  96 S5        30.06R FOG
CEDAR RAPIDS   SUNNY     70  70 100 S7        30.01R
DES MOINES     MOSUNNY   72  68  87 S9        29.98R
KIRKSVILLE     SUNNY     73  68  84 S6        30.07R
OTTUMWA        SUNNY     72  70  93 S9        30.01R
ST LOUIS       MOSUNNY   78  69  73 SW6       30.10S HX  80
$$


CITY           SKY/WX    TMP DP  RH WIND       PRES   REMARKS
TERRE HAUTE    MOSUNNY   71  69  93 CALM      30.13S
EVANSVILLE     SUNNY     73  68  84 CALM      30.14S
INDIANAPOLIS   MOSUNNY   73  67  81 S5        30.13S
LAFAYETTE      MOSUNNY   72  68  87 S3        30.11R
MADISON        SUNNY     72  69  90 S6        30.02R FOG
MILWAUKEE      MOSUNNY   72  68  87 SW8       30.03S FOG
$$




USA.gov is the U.S. government's official web portal to all federal, state and local government web resources and services.